Regional Weather Roundup
Issued by NWS

Home | Current Version | Previous Version | Graphics & Text | Print | Product List | Glossary On
Versions: 1 2 3 4 5 6 7 8 9 10 11 12 13 14 15 16 17 18 19 20 21 22 23 24 25 26 27 28 29 30 31 32 33 34 35 36 37 38 39 40 41 42 43 44 45 46 47 48 49 50
000
ASUS43 KLSX 221307
RWRMO

WEATHER SUMMARY FOR MISSOURI
NATIONAL WEATHER SERVICE SPRINGFIELD MO
700 AM CST FRI NOV 22 2019

NOTE: "FAIR" INDICATES FEW OR NO CLOUDS BELOW 12,000 FEET WITH NO
       SIGNIFICANT WEATHER AND/OR OBSTRUCTIONS TO VISIBILITY.
       CURRENT SKY AND/OR WEATHER CONDITIONS ARE NOT AVAILABLE FOR
       CHILLICOTHE AND FARMINGTON.

MOZ001>031-035>038-043-044-053-054-221400-
...NORTHERN AND WESTERN MISSOURI...

CITY           SKY/WX    TMP DP  RH WIND       PRES   REMARKS
KANSAS CTY INT PTCLDY    28  25  88 N9        30.21R WCI  19
KANSAS C DTWN  CLEAR     32  25  75 N7        30.22R WCI  26
LEE`S SUMMIT   CLEAR     31  25  78 N13       30.20S WCI  21
ST JOSEPH      PTCLDY    28  24  85 N6        30.26R WCI  22
CHILLICOTHE      N/A     27  25  92 CALM      30.24R
KIRKSVILLE     CLEAR     24  21  88 N9        30.20F WCI  14

$$
MOZ066>068-077>081-088>096-101>105-221400-
...SOUTHWEST MISSOURI...

CITY           SKY/WX    TMP DP  RH WIND       PRES   REMARKS
SPRINGFIELD    CLOUDY    37  33  85 NE10      30.12R WCI  30
JOPLIN         CLOUDY    37  33  85 NE8       30.15R
BRANSON        CLOUDY    37  37 100 N5        30.13R

$$
MOZ032>034-039>042-045>050-055>058-069>072-221400-
...CENTRAL MISSOURI...

CITY           SKY/WX    TMP DP  RH WIND       PRES   REMARKS
COLUMBIA       PTCLDY    32  28  85 N9        30.18R WCI  24
JEFFERSON CITY CLEAR     35  27  72 N9        30.20R WCI  28
ROLLA          MOCLDY    34  30  85 N9        30.14R WCI  27
SEDALIA        PTCLDY    32  27  81 NE6       30.22R WCI  26
WHITEMAN AFB   MOCLDY    31  30  99 N8        30.16R WCI  23
WARRENSBURG      N/A    N/A N/A N/A MISG        N/A
OSAGE BEACH    CLOUDY    35  33  92 N5        30.18R

$$
MOZ051-052-059>065-221400-
...EAST CENTRAL MISSOURI...

CITY           SKY/WX    TMP DP  RH WIND       PRES   REMARKS
ST LOUIS INTL  MOCLDY    35  28  75 N12       30.18R WCI  27
SPIRIT OF STL  CLOUDY    38  31  76 N9        30.17R
ST CHARLES       N/A    N/A N/A N/A MISG      30.19R

$$
MOZ072>076-082>087-097>100-106>115-221400-
...SOUTH CENTRAL AND SOUTHEAST MISSOURI...

CITY           SKY/WX    TMP DP  RH WIND       PRES   REMARKS
CAPE GIRARDEAU CLOUDY    42  38  85 N16G24    30.10S
FARMINGTON     CLOUDY    37  34  89 N9        30.13S
POPLAR BLUFF   CLOUDY    43  38  82 NE14      30.11R
WEST PLAINS    CLOUDY    39  36  89 NE10      30.10R

$$



USA.gov is the U.S. government's official web portal to all federal, state and local government web resources and services.